Bandarabbass, Iran

3:40 AM +0430 on June 24, 2017 (GMT +0430)
Bandar Abbass International

Weather History for OIKB - October, 2012

Change the Weather History Date:

Thursday, October 4, 2012

  Actual Average Record
Temperature  
Mean Temperature 84 °F -  
Max Temperature 100 °F 94 °F - ()
Min Temperature 68 °F 73 °F - ()
Cooling Degree Days 19    
Growing Degree Days 34 (Base 50)    
Moisture  
Dew Point 54 °F    
Average Humidity 40    
Maximum Humidity 78    
Minimum Humidity 6    
Precipitation  
Precipitation 0.00 in 0.00 in - ()
Sea Level Pressure  
Sea Level Pressure 29.75 in    
Wind  
Wind Speed 7 mph ()    
Max Wind Speed 14 mph    
Max Gust Speed -    
Visibility 5.3 miles    
Events      
T = Trace of Precipitation, MM = Missing Value Source: Averaged Metar Reports

Daily Weather History Graph

Daily Weather History Graph

Search for Another Location

Airport or City:

Trip Planner

Search our weather history database for the weather conditions in past years. The results will help you decide how hot, cold, wet, or windy it might be!

Date:

Astronomy

Oct. 04, 2012 Rise Set
Actual Time 5:38 AM +0330 5:27 PM +0330
Civil Twilight 5:15 AM +0330 5:50 PM +0330
Nautical Twilight 4:48 AM +0330 6:17 PM +0330
Astronomical Twilight 4:21 AM +0330 6:44 PM +0330
Moon 8:08 PM +0330 (10/4) 9:11 AM +0330 (10/4)
Length of Visible Light 12h 35m
Length of Day
11h 48m
Waning Gibbous, 84% of the Moon is Illuminated
Oct 4
Waning Gibbous
Oct 8
Last Quarter
Oct 15
New
Oct 22
First Quarter
Oct 29
Full

Hourly Weather History & Observations

Time (+0330) Temp. Heat Index Dew Point Humidity Pressure Visibility Wind Dir Wind Speed Gust Speed Precip Events Conditions
12:20 AM 78.8 °F - 64.4 °F 61% 29.74 in 5.0 mi NNW 9.2 mph - N/A   Clear
12:30 AM 78.8 °F - 64.4 °F 61% 29.74 in 5.0 mi NNW 9.2 mph - N/A   Clear
1:30 AM 77.0 °F - 64.4 °F 65% 29.74 in 5.0 mi NNW 6.9 mph - N/A   Clear
2:30 AM 77.0 °F - 64.4 °F 65% 29.74 in 5.0 mi North 4.6 mph - N/A   Clear
3:20 AM 73.4 °F - 62.6 °F 69% 29.74 in 5.0 mi North 4.6 mph - N/A   Clear
3:30 AM 73.4 °F - 62.6 °F 69% 29.74 in 5.0 mi North 4.6 mph - N/A   Clear
4:30 AM 71.6 °F - 62.6 °F 73% 29.74 in 5.0 mi North 4.6 mph - N/A   Clear
5:30 AM 68.0 °F - 60.8 °F 78% 29.77 in 5.0 mi North 4.6 mph - N/A   Clear
6:20 AM 69.8 °F - 62.6 °F 78% 29.77 in - North 4.6 mph - N/A   Clear
6:30 AM 69.8 °F - 62.6 °F 78% 29.77 in - North 4.6 mph - N/A   Clear
7:00 AM 78.8 °F - 57.2 °F 47% 29.77 in - NNW 4.6 mph - N/A   Clear
7:20 AM 84.2 °F 82.8 °F 53.6 °F 35% 29.80 in - NNW 4.6 mph - N/A   Clear
7:30 AM 84.2 °F 82.8 °F 53.6 °F 35% 29.80 in - NNW 4.6 mph - N/A   Clear
8:00 AM 89.6 °F - 46.4 °F 22% 29.80 in - North 4.6 mph - N/A   Clear
8:20 AM 93.2 °F - 41.0 °F 16% 29.80 in - NE 4.6 mph - N/A   Clear
9:00 AM 93.2 °F - 39.2 °F 15% 29.80 in - East 6.9 mph - N/A   Clear
9:20 AM 96.8 °F - 35.6 °F 12% 29.80 in - NE 6.9 mph - N/A   Clear
9:30 AM 96 °F - 35 °F 6% 29.82 in 6 mi NE 6.7 mph - -  
10:00 AM 96.8 °F - 32.0 °F 10% 29.80 in - ESE 6.9 mph - N/A   Clear
10:20 AM 98.6 °F - 30.2 °F 9% 29.80 in - SSW 6.9 mph - N/A   Clear
10:30 AM 98.6 °F - 30.2 °F 9% 29.80 in - SSW 6.9 mph - N/A   Clear
11:00 AM 96.8 °F - 37.4 °F 13% 29.77 in - South 11.5 mph - N/A   Clear
11:20 AM 98.6 °F - 35.6 °F 11% 29.77 in - South 13.8 mph - N/A   Clear
11:30 AM 98.6 °F - 35.6 °F 11% 29.77 in - South 13.8 mph - N/A   Clear
12:00 PM 98.6 °F - 35.6 °F 11% 29.74 in - South 9.2 mph - N/A   Clear
12:20 PM 100.4 °F - 32.0 °F 9% 29.74 in - South 13.8 mph - N/A   Clear
12:30 PM 100.4 °F - 32.0 °F 9% 29.74 in - South 13.8 mph - N/A   Clear
1:00 PM 98.6 °F - 46.4 °F 17% 29.71 in - SSE 13.8 mph - N/A   Clear
1:20 PM 98.6 °F - 44.6 °F 16% 29.71 in - South 13.8 mph - N/A   Clear
1:30 PM 98.6 °F - 44.6 °F 16% 29.71 in - South 13.8 mph - N/A   Clear
2:00 PM 98.6 °F - 46.4 °F 17% 29.71 in - South 11.5 mph - N/A   Clear
2:30 PM 96.8 °F - 50.0 °F 20% 29.71 in - South 11.5 mph - N/A   Clear
3:00 PM 96.8 °F - 50.0 °F 20% 29.71 in - South 13.8 mph - N/A   Clear
3:20 PM 96.8 °F 94.4 °F 53.6 °F 23% 29.71 in - South 13.8 mph - N/A   Clear
3:30 PM 96 °F - 54 °F 15% 29.72 in 6 mi South 13.4 mph - -  
3:30 PM 96.8 °F 94.4 °F 53.6 °F 23% 29.71 in - South 13.8 mph - N/A   Clear
4:20 PM 93.2 °F 92.6 °F 59.0 °F 32% 29.68 in - South 13.8 mph - N/A   Clear
4:30 PM 93.2 °F 92.6 °F 59.0 °F 32% 29.68 in - South 13.8 mph - N/A   Clear
5:20 PM 87.8 °F 91.4 °F 68.0 °F 52% 29.68 in - SSW 9.2 mph - N/A   Clear
5:30 PM 87.8 °F 91.4 °F 68.0 °F 52% 29.68 in - SSW 9.2 mph - N/A   Clear
6:20 PM 86.0 °F 90.4 °F 69.8 °F 58% 29.71 in - WSW 6.9 mph - N/A   Clear
6:30 PM 86.0 °F 90.4 °F 69.8 °F 58% 29.71 in - WSW 6.9 mph - N/A   Clear
7:30 PM 80.6 °F 83.2 °F 68.0 °F 65% 29.71 in - Calm Calm - N/A   Clear
8:20 PM 78.8 °F - 68.0 °F 69% 29.74 in - NNW 4.6 mph - N/A   Clear
8:30 PM 78.8 °F - 68.0 °F 69% 29.74 in - NNW 4.6 mph - N/A   Clear
9:20 PM 77.0 °F - 66.2 °F 69% 29.74 in - ENE 4.6 mph - N/A   Clear
9:30 PM 77 °F - 66 °F 62% 29.76 in 6 mi ENE 4.5 mph - -  
9:30 PM 77.0 °F - 66.2 °F 69% 29.74 in - ENE 4.6 mph - N/A   Clear
10:20 PM 75.2 °F - 62.6 °F 65% 29.74 in - North 4.6 mph - N/A   Clear
10:30 PM 75.2 °F - 62.6 °F 65% 29.74 in - North 4.6 mph - N/A   Clear
11:20 PM 75.2 °F - 62.6 °F 65% 29.77 in - North 4.6 mph - N/A   Clear
11:30 PM 75.2 °F - 62.6 °F 65% 29.77 in - North 4.6 mph - N/A   Clear